Location: Aldenham
(51.6667°N, 0.3500°W)
Time: 07:52:59
(UTC+00:00)

Explorer 7 - Pass Details

Date: 21 February 2026
Orbit: 430 x 541 km, 50.2° (Epoch: 12 March)

Event Time Altitude Azimuth Distance (km) Brightness Sun altitude
Rises 18:27:15 0° 280° (W) 2,494 12.0 -10.0°
Reaches altitude 10° 18:29:27 10° 272° (W) 1,637 10.8 -10.3°
Maximum altitude 18:32:54 39° 203° (SSW) 746 7.7 -10.9°
Drops below altitude 10° 18:36:30 10° 134° (SE) 1,697 8.9 -11.4°
Enters shadow 18:36:47 - 133° (SE) 1,805 9.0 -11.5°
Sets 18:38:49 0° 127° (SE) 2,600 - -11.8°
